TIROS 9

Satellite information

Favourite Embed

Satellite Type and Status

PAYLOADIN ORBIT

Key statistics

Satellite TIROS 9 at a glance.

Uptime

22184

Days in orbit

Revolutions

≈ 12.1

Per day

Orbit

MEO

Medium Earth Orbit

Inclination

96.4

Latest

Satellite identification and parameters

Extended collection of information and parameters for TIROS 9.

Object identification

Identified? True

Debris? False

Object name: TIROS 9

International designator: 1965-004A

Object number (NORAD): 978

Object ID (CCSDS): 978

Country: UNITED STATES OF AMERICA (US)

Current information (Y/N): Y

RCS size: MEDIUM

Orbital parameters

Period: 118.898 minutes

Inclination: 96.4038 deg

SMA: 8009.598 km

Apoapsis: 2558.538 km

Periapsis: 704.388 km

RAAN: 193.7103 deg

Eccentricy: 0.11574554

Argument of periapsis: 198.6335 deg

Mean anomaly: 156.8784 deg

Mean motion: 12.111186 rev/day

Mean motion (dot): -0.00000038 rev/day2

B* drag term: -0.000029278911 1/REarth

Two-line elements (TLE)

Creation date: Oct. 18, 2025, 2:17 a.m.

Reference frame: TEME

Reference center: EARTH

Epoch: Oct. 18, 2025, 12:04 a.m. UTC

TLE line 0: 0 TIROS 9

TLE line 1: 1 00978U 65004A 25291.00332665 -.00000038 00000-0 -29279-4 0 9999

TLE line 2: 2 00978 96.4038 193.7103 1157455 198.6335 156.8784 12.11118600682290

Live tracking on map

Real-time ground track for satellite TIROS 9.

In-orbit conjunctions

A list of the most updated potential collisions computed for object TIROS 9.

Target Orbit TCA Probability of collision Miss distance Type
COSMOS 252 DEB * MEO 2025-09-02 02:02:57 0.002620939 87.0 (m) DEBRIS
COSMOS 249 DEB LEO 2025-03-15 03:39:13 0.0001237339 949.0 (m) DEBRIS
FENGYUN 1C DEB SSO 2024-08-01 23:02:30 0.000109792 652.0 (m) DEBRIS

Associated space launch

The ESSA series was the second generation of US meterological satellites after the TIROS (Television & Infra-Red Observation Satellite) series. They were also called OT (Operational TIROS), TOS (TIROS Operational Satellite).

TIROS 9 was lifted into orbit during the mission ‘Thor Delta C | Tiros 9’, on board a Thor Delta C space rocket.

The launch took place on Jan. 22, 1965, 7:52 a.m. from Space Launch Complex 17A.

For more information about the launch, click the button.

Launch to space Thor Delta C | Tiros 9
Thor Delta C | Tiros 9

Agency: N/A

Status: Launch Failure

Launch date: Jan. 22, 1965, 7:52 a.m. UTC

Rocket: Thor Delta C

Launch pad: Space Launch Complex 17A

Location: Cape Canaveral SFS, FL, USA

...

Latest news about this satellite

There are no fresh news available about this satellite. Check back as we update our databases every day.


Newsletter sign-up

Weekly statistics, charts and insights to help you stay on top of the space industry.